sat.trackr.live / text

‹ back to catalog

STARLINK-30616

NORAD 58105 · 2023-161J

PAYLOAD ACTIVE UNKNOWN

§ Identity

Operator
Country
US
Launch date
2023-10-21
Launch site
AFWTR
Launch vehicle
Mass (kg)
RCS (m²)

Purposes: comms

External: N2YO · Heavens-Above · Gunter

§ Orbital elements

Epoch: 2026-05-25T00:45:42.727392Z

Period
93.90 min
Inclination
53.1624°
Eccentricity
0.0001330
Mean motion
15.33547185 rev/d
Perigee alt
464.3 km
Apogee alt
466.1 km
Semi-major
6,843.4 km
B*
1.5391e-5
RAAN
157.7181°
Arg perigee
88.1752°
Mean anomaly
271.9403°
Rev number
14,628

§ Raw data

STARLINK-306161 58105U 23161J   26145.03174453  .00000133  00000+0  15391-4 0  99962 58105  53.1624 157.7181 0001330  88.1752 271.9403 15.33547185146289

JSON: /api/v1/satellites/58105 · /tle

For live sub-satellite position, see the globe view (requires WebGL).

§ Visibility from observer

Set your observer location to see the next 7 days of passes ≥ 10°. The values pass through the URL so the page stays shareable.

No JS? Fill the form by hand. The geolocation button needs JavaScript.